Погода в Тихвине

Хотите узнать прогноз погоды в Тихвине? Тогда Вам сюда: Погода в Тихвине

Поиск расширенной информации на нашем сайте:

Полезная информация:

Новости сайта



02.01.2020
Опубликован Долгосрочный прогноз погоды по городам России и ближнего зарубежья на январь 2020 года.
Карты: Прогноз на январь и февраль 2020 года, Сравнение прогнозируемой аномалии приземной температуры воздуха на январь 2020 года по разным моделям.




Погода в Тихвине - сегодня

Время (UTC), дата Ветер
(°,м/с) 
Видим.   Явления Облачность Т
(°С)
Тd
(°С)
f(%) Тe
(°С)
Pmin
(гПа)
dP
(гПа)
Po
(мм)
O2
(г/м3)
Тmin Tmax R s Состояние
почвы
15 27.03.20 260 (З) 30000 м    3/0 верхняя 
[Ci fib]
+11.5 -8.3 24 +12  1029.3  -2.2  766  297           
18 27.03.20 180 (Ю) 20000 м    3/0 верхняя 
[Ci fib]
+1.7 -6.8 53 +2  1028.2  -1.4  765  307    +13.2       
21 27.03.20 180 (Ю) 20000 м    ясно 
-1.3 -4.9 76 -1  1026.8  -1.4  764  310           
00 28.03.20 070 (В) 20000 м    3/0 средняя 
[Ac trans]
-2.9 -5.2 84 -2  1025.2  -1.8  763  311           
03 28.03.20 тихо ()   20000 м    4/0 средняя 
[Ac trans]
-4 -4.8 94 -4  1022.6  -2.5  761  312  -4         
06 28.03.20 210 (ЮЗ) 30000 м    9/0 средняя 
[Ac trans]
+4.8 -6.3 44 +4  1020.1  -2.2  759  301  -4         
09 28.03.20 230 (ЮЗ) 30000 м    4/0 верхняя 
[Cs]
+12 -5.3 29 +12  1017.9  -2.1  758  293           
12 28.03.20 290 (З) 30000 м    5/0 верхняя 
[Ci fib]
+13.2 -6 26 +13  1015.6  -2.1  756  291           
15 28.03.20 240 (ЮЗ) 30000 м    1/0 верхняя 
[Ci fib]
+12.7 -6.7 25 +13  1013.7  -2.1  755  291           
18 28.03.20 340 (С) 20000 м    3/0 средняя 
[Ac trans]
+3.1 -4.5 57 +4  1014  0.2  755  301    +13.9       
21 28.03.20 тихо ()   20000 м    3/0 средняя 
[Ac trans]
+1.1 -4.1 68 +1  1013.3  -0.8  754  303           
00 29.03.20 320 (СЗ) 20000 м    9/0 средняя 
[Ac trans]
+2 -3.7 66 +1  1013.6  0.3  754  302           
03 29.03.20 330 (СЗ) 20000 м    10/0 средняя 
[Ac und]
+2.1 -3.6 66 +1  1013.5  -0.1  754  302  +1         
06 29.03.20 160 (Ю) 20000 м    10/0 средняя 
[Ac und]
+1.4 -8.7 47 1013.5  754  303  +1         
09 29.03.20 310 (СЗ) 20000 м    9/0 средняя 
[Ac trans]
+2 -11.9 35 1013.9  0.4  755  303           
12 29.03.20 310 (СЗ) 20000 м    10/0 средняя 
[Ac und]
+2.2 -12.1 34 +1  1014.7  0.8  755  303           
15 29.03.20 310 (СЗ) 20000 м    10/0 средняя 
[Ac und]
+0.6 -12.8 36 -1  1014.7  755  305           
18 29.03.20 310 (СЗ) 20000 м    10/0 средняя 
[Ac und]
-1.4 -11.4 46 -1  1014.8  0.1  755  307    +2.2       
21 29.03.20 330 (СЗ) 20000 м    6/0 средняя 
[Ac trans]
-2.6 -10.5 55 -4  1014.9  0.1  755  308           
00 30.03.20 340 (С) 20000 м    8/0 средняя 
[Ac trans]
-5 -10.8 64 -5  1015.2  0.1  755  311           
03 30.03.20 350 (С) 20000 м    ясно 
-7.1 -11.9 69 -7  1015.4  0.1  756  314  -7.1         
06 30.03.20 010 (С) 20000 м    ясно 
-3 -9.7 60 -4  1017.7  2.4  757  310  -7.7         
09 30.03.20 350 (С) 35000 м    5/5 600 м 
[Cu hum]
+1.1 -12.6 35 1019  1.5  758  306           
12 30.03.20 310 (СЗ) 35000 м    9/6 600 м кучево-дожд., средняя 
[Cb cap|Ac trans]
+0.7 -13.5 34 -1  1019.7  0.7  759  306           
15 30.03.20 360 (С) 35000 м    8/4 600 м средняя, верхняя 
[Sc|Ac trans|Ci fib]
+0.6 -12.5 37 -2  1018.9  -0.8  758  306           
Время (UTC), дата Ветер
(°,м/с) 
Видим.   Явления Облачность Т
(°С)
Тd
(°С)
f(%) Тe
(°С)
Pmin
(гПа)
dP
(гПа)
Po
(мм)
O2
(г/м3)
Тmin Tmax R s Состояние
почвы

Для получения пояснительной информации подведите курсор к названию столбца.

ПОГОДА в Тихвине - архив

Всё, что Вы хотите узнать о погоде в Тихвине - удобно и подробно!

Выберите нужную дату (начиная с 1 января 2019* года) и нажмите кнопку "Найти".
Будут отображены архивные сводки погоды по пункту Тихвин, начиная с указанной даты.


Отображать данные в формате CSV (для использования в таблицах Excel)


Внимание! Наш архив погоды предназначен исключительно для личного некоммерческого использования в познавательных целях. Если Вам необходимы официальные справки о состоянии погоды (для производственных, юридических, коммерческих и т.п. целей), обращайтесь в органы Росгидромета.

*Примечание: данная дата относится к архиву по метеостанциям СССР (Россия, СНГ, Балтия).
Архив по метеостанциям Зарубежной Европы и Азии (кроме Китая) хранится 10 дней, по другим регионам земного шара (Китай, Африка, Америка, Австралия, Океания) - 1 день.

Тихвин - район местоположения метеостанции


Название, широта, долгота, высота метеостанции:
Тихвин 59.6°ш. 33.6°д. 61 м над ур. моря [Российская Федерация]

Дополнительная информация

В oтличие oт бoльшинства пoгoдных сайтoв мы публикуем пoдрoбную метеoинфoрмацию в детальнoм прoфессиoнальнoм фoрмате.

Характеристики температуры и влажнoсти вoздуха измеряются на высoте 2 м в тени вдали oт зданий и деревьев.
Скoрoсть ветра измеряется на высoте 10 м (на урoвне рoста челoвека скoрoсть ветра ниже в 1.5-2 раза). Если метеoстанция нахoдится в гoрoде или в лесу, тo скoрoсть ветра занижена на 2-4 м/с пo сравнению с oткрытым местoм. Скoрoсть ветра над акватoриями крупных рек и oзёр, а также на вершинах хoлмoв на 2-5 м/с выше, чем в oбычных услoвиях.
Атмoсфернoе давление в разных тoчках местнoсти мoжет значительнo oтличаться oт давления на метеoстанции, в зависимoсти oт услoвий рельефа (при пoдъёме на 10 м давление пoнижается примернo на 1 мм рт.ст.).